Mather AFB, CA

10:12 PM PDT on August 22, 2017 (GMT -0700)
Mather

Weather History for KMHR - March, 2012

Change the Weather History Date:

Tuesday, March 27, 2012

  Actual Average Record
Temperature  
Mean Temperature 50 °F -  
Max Temperature 57 °F 67 °F 82 °F (2015)
Min Temperature 44 °F 42 °F 37 °F (2007)
Degree Days  
Heating Degree Days 14    
Moisture  
Dew Point 43 °F    
Average Humidity 77    
Maximum Humidity 100    
Minimum Humidity 47    
Precipitation  
Precipitation 0.00 in - - ()
Sea Level Pressure  
Sea Level Pressure 29.98 in    
Wind  
Wind Speed 8 mph (SE)    
Max Wind Speed 20 mph    
Max Gust Speed 26 mph    
Visibility 8 miles    
Events Rain    
Averages and records for this station are not official NWS values.
T = Trace of Precipitation, MM = Missing Value Source: NWS Daily Summary

Daily Weather History Graph

Daily Weather History Graph

Search for Another Location

Airport or City:

Trip Planner

Search our weather history database for the weather conditions in past years. The results will help you decide how hot, cold, wet, or windy it might be!

Date:

Astronomy

Mar. 27, 2012 Rise Set
Actual Time 6:56 AM PDT 7:24 PM PDT
Civil Twilight 6:30 AM PDT 7:51 PM PDT
Nautical Twilight 5:59 AM PDT 8:22 PM PDT
Astronomical Twilight 5:27 AM PDT 8:54 PM PDT
Moon 9:34 AM PDT (3/27) No Moon Set
Length of Visible Light 13h 20m
Length of Day
12h 27m
Waxing Crescent, 23% of the Moon is Illuminated
Mar 27
Waxing Crescent
Mar 30
First Quarter
Apr 6
Full
Apr 13
Last Quarter
Apr 21
New

Hourly Weather History & Observations

Time (PDT) Temp. Windchill Dew Point Humidity Pressure Visibility Wind Dir Wind Speed Gust Speed Precip Events Conditions
12:50 AM 48.2 °F - 42.8 °F 82% 30.03 in 10.0 mi ESE 4.6 mph - N/A   Overcast
1:55 AM 48.2 °F - 42.8 °F 82% 30.04 in 10.0 mi ESE 4.6 mph - N/A   Overcast
2:55 AM 48.2 °F - 39.2 °F 71% 30.06 in 10.0 mi SE 5.8 mph - N/A   Overcast
3:55 AM 48.2 °F - 37.4 °F 66% 30.03 in 10.0 mi East 5.8 mph - N/A   Overcast
4:55 AM 44.6 °F 40.7 °F 39.2 °F 81% 30.01 in 10.0 mi ESE 6.9 mph - N/A   Overcast
5:50 AM 46.4 °F 45.2 °F 41.0 °F 81% 30.01 in 10.0 mi ESE 3.5 mph - N/A   Overcast
6:45 AM 46.4 °F 43.5 °F 41.0 °F 81% 30.00 in 10.0 mi SSE 5.8 mph - N/A   Mostly Cloudy
7:45 AM 48.2 °F - 41.0 °F 76% 29.99 in 10.0 mi SE 4.6 mph - N/A   Mostly Cloudy
8:45 AM 50.0 °F - 39.2 °F 66% 30.00 in 10.0 mi SSE 8.1 mph - N/A   Overcast
9:48 AM 51.8 °F - 41.0 °F 67% 29.99 in 10.0 mi SE 10.4 mph - N/A   Overcast
10:47 AM 55.4 °F - 39.2 °F 54% 29.98 in 10.0 mi SE 11.5 mph 17.3 mph N/A   Overcast
11:45 AM 55.4 °F - 35.6 °F 47% 29.96 in 10.0 mi SSE 19.6 mph 26.5 mph N/A   Overcast
12:54 PM 57.2 °F - 39.2 °F 51% 29.96 in 10.0 mi South 18.4 mph 24.2 mph N/A   Overcast
1:46 PM 57.2 °F - 39.2 °F 51% 29.97 in 10.0 mi South 13.8 mph - N/A   Overcast
2:58 PM 53.6 °F - 44.6 °F 72% 29.95 in 10.0 mi SSE 6.9 mph - N/A   Overcast
3:50 PM 51.8 °F - 46.4 °F 82% 29.94 in 5.0 mi ESE 8.1 mph - N/A Rain Rain
4:50 PM 51.8 °F - 46.4 °F 82% 29.91 in 5.0 mi ESE 13.8 mph - N/A Rain Light Rain
6:45 PM 50.0 °F - 48.2 °F 94% 29.92 in 3.0 mi ESE 8.1 mph - N/A Rain Light Rain
7:50 PM 48.2 °F - 46.4 °F 93% 29.92 in 5.0 mi ESE 11.5 mph - N/A Rain Light Rain
8:45 PM 48.2 °F - 46.4 °F 93% 29.95 in 3.0 mi SE 6.9 mph - N/A Rain Rain
9:45 PM 48.2 °F - 48.2 °F 100% 29.95 in 4.0 mi ESE 12.7 mph - N/A Rain Rain
10:55 PM 50.0 °F - 48.2 °F 94% 29.95 in 3.0 mi ESE 15.0 mph 21.9 mph N/A Rain Rain
11:45 PM 50.0 °F - 50.0 °F 100% 29.95 in 3.0 mi SE 13.8 mph 20.7 mph N/A Rain Rain